Regional Weather Roundup
Issued by NWS

Home | Current Version | Previous Version | Graphics & Text | Print | Product List | Glossary On
Versions: 1 2 3 4 5 6 7 8 9 10 11 12 13 14 15 16 17 18 19 20 21 22 23 24 25 26 27 28 29 30 31 32 33 34 35 36 37 38 39 40 41 42 43 44 45 46 47 48 49 50
491
ASUS45 KPSR 270210
RWRAZ

ARIZONA HOURLY REGIONAL WEATHER ROUNDUP
NATIONAL WEATHER SERVICE PHOENIX AZ
700 PM MST WED JUL 26 2017

NOTE: FAIR INDICATES FEW OR NO CLOUDS BELOW 12,000 FEET WITH NO
SIGNIFICANT WEATHER AND/OR OBSTRUCTIONS TO VISIBILITY.

AZZ001>003-036-270300-
NORTHWEST ARIZONA

CITY           SKY/WX    TMP DP  RH WIND       PRES   REMARKS
KINGMAN        CLOUDY    92  57  30 VRB3      30.05R
$$

AZZ004>008-015-016-018-270300-
NORTH CENTRAL ARIZONA

CITY           SKY/WX    TMP DP  RH WIND       PRES   REMARKS
GRAND CANYON   CLEAR     78  55  44 W8        30.31R
WILLIAMS       CLOUDY    77  55  47 NW6       30.31R
PRESCOTT       PTCLDY    84  57  39 W6        30.17S
FLAGSTAFF      CLOUDY    74  57  55 SE9       30.35R
PAYSON         CLEAR     84  55  37 W7        30.21R
PAGE           PTCLDY    90  53  28 SE3       30.08R
$$

AZZ009>014-017-270300-
NORTHEAST ARIZONA

CITY           SKY/WX    TMP DP  RH WIND       PRES   REMARKS
WINSLOW        MOCLDY    83  57  41 SW13      30.15R
SAINT JOHNS    CLOUDY    84  54  35 S17       30.20R
WINDOW ROCK    PTCLDY    83  49  30 W7        30.27R
SHOW LOW       MOCLDY    77  50  38 W7        30.29R
$$

AZZ540-542>544-546-548-270300-
GREATER PHOENIX AREA

CITY           SKY/WX    TMP DP  RH WIND       PRES   REMARKS
PHOENIX        PTCLDY   103  57  21 W12G18    29.82S HX 102
BUCKEYE        CLEAR    100  61  27 S5        29.83S HX 101
GLENDALE       PTCLDY   104  59  22 S13       29.83F HX 104
LUKE AFB       CLEAR    102  59  23 SW13      29.81S HX 102
DEER VALLEY    PTCLDY   100  58  24 SW12      29.85R
SCOTTSDALE     PTCLDY   101  57  23 SW8       29.87R HX 100
MESA-FALCON    PTCLDY   100  61  27 SW8       29.86R HX 101
MESA-GATEWAY   PTCLDY   100  57  23 W9        29.87R
CHANDLER       CLEAR    102  55  21 SW12      29.85R HX 101
$$

AZZ539-553-270300-
SOUTHWEST MARICOPA COUNTY AND PINAL COUNTY

CITY           SKY/WX    TMP DP  RH WIND       PRES   REMARKS
CASA GRANDE    NOT AVBL
GILA BEND      PTCLDY   103  50  16 NW9       29.81S HX 100
$$

AZZ503-504-507>509-270300-
SOUTHEAST ARIZONA

CITY           SKY/WX    TMP DP  RH WIND       PRES   REMARKS
TUCSON         MOCLDY    94  62  34 S9        29.99R
DAVIS-MONTHAN  MOCLDY    93  62  35 CALM      29.98R
RYAN FIELD     CLEAR     93  64  38 SW3       29.96R
NOGALES        CLOUDY    75  72  90 S5        30.11R
SIERRA VISTA   MOCLDY    78  62  58 W9        30.17R
DOUGLAS        MOCLDY    81  61  50 NW9       30.08F
SAFFORD        CLEAR     92  55  28 NW15      29.97R
$$

AZZ532-270300-
SOUTHWEST ARIZONA

CITY           SKY/WX    TMP DP  RH WIND       PRES   REMARKS
YUMA           CLEAR    104  52  17 SW10      29.78S HX 101
$$

CAZ041-043-047-048-061-525>527-560>570-270300-
SOUTHERN CALIFORNIA

CITY           SKY/WX    TMP DP  RH WIND       PRES   REMARKS
DOWNTOWN L.A.  SUNNY     75  63  66 VRB6      29.93R
L.A. AIRPORT   MOSUNNY   70  64  81 W14       29.94S
SAN DIEGO      MOCLDY    73  64  73 NW9       29.96F
BURBANK        SUNNY     79  61  53 SE12      29.93R
ONTARIO        MOSUNNY   85  61  44 W13G20    29.93R
RIVERSIDE      CLEAR     84  64  50 W14       29.93R
PALM SPRINGS   PTCLDY   106  51  16 E9        29.80F HX 103
EL CENTRO NAS  PTCLDY   103  59  23 SE10      29.77S HX 103
IMPERIAL       CLEAR    106  60  22 SE15      29.74S HX 107
BLYTHE         MOCLDY   107  57  19 S13       29.77S HX 107
NEEDLES        CLEAR    108  48  13 S10       29.81S HX 104
$$

NVZ020-UTZ003-270300-
SOUTHERN NEVADA-UTAH

CITY           SKY/WX    TMP DP  RH WIND       PRES   REMARKS
LAS VEGAS      PTCLDY    98  60  28 S6        29.91F
SALT LAKE CITY MOCLDY    85  58  39 N10       30.09R
$$

NMZ009-TXZ055-270300-
NEW MEXICO-WEST TEXAS

CITY           SKY/WX    TMP DP  RH WIND       PRES   REMARKS
ALBUQUERQUE    CLOUDY    91  51  25 SW9       30.12R
EL PASO        MOCLDY    86  64  47 NE8       30.05R
$$


........................KEY........................
SKY/WX - SKY CONDITION/WEATHER
TMP    - TEMPERATURE IN FAHRENHEIT
DP     - DEW POINT IN FAHRENHEIT
RH     - RELATIVE HUMIDITY IN PERCENT
WIND   - DIRECTION AND SPEED IN MILES PER HOUR (MPH)
VRB    - VARIABLE WIND DIRECTION
PRES   - MEAN SEA LEVEL PRESSURE IN INCHES OF MERCURY
         F - FALLING PRESSURE   R - RISING PRESSURE
         S - STEADY PRESSURE
VSB    - VISIBILITY IN MILES
HX     - HEAT INDEX IN FAHRENHEIT
WCI    - WIND CHILL INDEX IN FAHRENHEIT
TC     - TEMPERATURE IN CELSIUS WHICH IS ALSO KNOWN AS
         TEMPERATURE IN CENTIGRADE
AFB    - AIR FORCE BASE
         LUKE AFB IS LUKE AIR FORCE BASE
         DAVIS-MONTHAN IS DAVIS-MONTHAN AIR FORCE BASE
NAS    - NAVAL AIR STATION
         EL CENTRO NAS IS EL CENTRO NAVAL AIR STATION
N/A    - NOT AVAILABLE





USA.gov is the U.S. government's official web portal to all federal, state and local government web resources and services.